Location: Greenwich
(51.4790°N, 0.0090°E)
Time: 04:13:53
(UTC+01:00)

SR - Visible Passes

Search period start: 22 April 2024 00:00
Search period end: 02 May 2024 00:00
Orbit: 577 x 862 km, 66.7° (Epoch: 21 April)

Date Brightness Start Highest point End Pass type
(mag) Time Alt. Az. Time Alt. Az. Time Alt. Az.
22 Apr ? 00:52:25 12° E 00:52:25 12° E 00:53:29 10° E visible
22 Apr ? 02:31:38 54° S 02:32:33 64° ESE 02:37:34 10° NE visible
22 Apr ? 04:10:51 14° W 04:14:46 33° NW 04:19:15 10° NNE visible
23 Apr ? 01:40:42 35° ESE 01:40:42 35° ESE 01:45:12 10° NE visible
23 Apr ? 03:19:55 29° WSW 03:22:23 52° NW 03:27:16 10° NNE visible
23 Apr ? 05:01:44 10° WNW 05:05:19 19° NNW 05:08:44 10° NNE visible
24 Apr ? 00:49:44 18° E 00:49:44 18° E 00:52:23 10° ENE visible
24 Apr ? 02:28:57 55° SW 02:30:08 87° NW 02:35:11 10° NE visible
24 Apr ? 04:08:20 10° W 04:12:39 25° NNW 04:16:43 10° NNE visible
25 Apr ? 01:37:56 54° SE 01:38:02 54° ESE 01:42:58 10° NE visible
25 Apr ? 03:17:08 20° W 03:20:07 37° NW 03:24:43 10° NNE visible
25 Apr ? 05:00:19 10° NW 05:03:21 16° NNW 05:06:15 10° NNE visible
26 Apr ? 00:46:52 28° E 00:46:52 28° E 00:50:28 10° NE visible
26 Apr ? 02:26:04 40° WSW 02:27:45 60° NW 02:32:41 10° NNE visible
26 Apr ? 04:06:48 10° WNW 04:10:34 20° NNW 04:14:09 10° NNE visible
26 Apr ? 23:55:44 15° E 23:55:44 15° E 23:57:22 10° ENE visible
27 Apr ? 01:34:56 69° SSW 01:35:32 81° SE 01:40:33 10° NE visible
27 Apr ? 03:14:08 13° W 03:17:55 28° NW 03:22:07 10° NNE visible
27 Apr ? 04:58:50 10° NW 05:01:23 14° N 05:03:50 10° NNE visible
28 Apr ? 00:43:45 45° ESE 00:43:45 45° ESE 00:48:15 10° NE visible
28 Apr ? 02:22:56 26° W 02:25:25 42° NW 02:30:05 10° NNE visible
28 Apr ? 04:05:19 10° WNW 04:08:30 16° NNW 04:11:34 10° NNE visible
28 Apr ? 23:52:29 23° E 23:52:29 23° E 23:55:36 10° ENE visible
29 Apr ? 01:31:41 48° WSW 01:33:03 69° NW 01:38:00 10° NE visible
29 Apr ? 03:11:47 10° WNW 03:15:44 22° NNW 03:19:28 10° NNE visible
29 Apr ? 04:57:09 10° NNW 04:59:24 13° N 05:01:34 10° NNE visible
29 Apr ? 23:01:10 12° E 23:01:10 12° E 23:02:03 10° E visible
30 Apr ? 00:40:22 65° SSE 00:40:50 69° SE 00:45:49 10° NE visible
30 Apr ? 02:19:33 15° W 02:23:06 31° NW 02:27:25 10° NNE visible
30 Apr ? 04:03:48 10° NW 04:06:27 14° NNW 04:09:01 10° NNE visible
30 Apr ? 23:48:57 38° ESE 23:48:57 38° ESE 23:53:24 10° NE visible
01 May ? 01:28:08 27° WSW 01:30:37 48° NW 01:35:22 10° NNE visible
01 May ? 03:10:13 10° WNW 03:13:35 17° NNW 03:16:48 10° NNE visible
01 May ? 22:57:26 20° ESE 22:57:26 20° ESE 23:00:34 10° ENE visible
